sat.trackr.live / text

‹ back to catalog

ZHONGXING-2A

NORAD 38352 · 2012-028A

PAYLOAD ACTIVE UNKNOWN

§ Identity

Operator
Country
PRC
Launch date
2012-05-26
Launch site
XICLF
Launch vehicle
Mass (kg)
RCS (m²)
19.95

Purposes: comms

External: N2YO · Heavens-Above · Gunter

§ Orbital elements

Epoch: 2026-05-24T21:21:56.499264Z

Period
1,436.13 min
Inclination
1.3965°
Eccentricity
0.0003055
Mean motion
1.00269155 rev/d
Perigee alt
35,774.5 km
Apogee alt
35,800.2 km
Semi-major
42,165.5 km
B*
0.0000e+0
RAAN
84.1640°
Arg perigee
36.8187°
Mean anomaly
180.2154°
Rev number
5,106

§ Raw data

ZHONGXING-2A1 38352U 12028A   26144.89023726 -.00000295  00000+0  00000+0 0  99932 38352   1.3965  84.1640 0003055  36.8187 180.2154  1.00269155 51068

JSON: /api/v1/satellites/38352 · /tle

For live sub-satellite position, see the globe view (requires WebGL).

§ Visibility from observer

Set your observer location to see the next 7 days of passes ≥ 10°. The values pass through the URL so the page stays shareable.

No JS? Fill the form by hand. The geolocation button needs JavaScript.